Location: Newark
(49.3000°N, 9.4667°E)
Time: 23:49:40
(UTC+00:00)

Tiros 1 - Pass Details

Date: 28 May 2019
Orbit: 631 x 664 km, 48.4° (Epoch: 19 June)

Event Time Altitude Azimuth Distance (km) Brightness Sun altitude
Rises 08:57:58 0° 237° (WSW) 2,914 10.4 50.5°
Reaches altitude 10° 09:00:20 10° 232° (SW) 2,011 9.7 50.9°
Maximum altitude 09:04:47 49° 157° (SSE) 818 9.3 51.5°
Drops below altitude 10° 09:09:18 10° 83° (E) 2,033 10.3 52.1°
Sets 09:11:42 0° 78° (ENE) 2,950 10.9 52.4°
